Date String (YYYY-MM-DD hh:mm:ss) UTC,Instrument flags,absolute air pressure of the measurement (hPa),sample flow rate (lpm),inlet stack bypass flow (lpm),air temperature of the measurement (°C),ambient temperature measured by the external sensor (°C),aerosol sample conditioner tube jacket temperature (°C),OPC LED temperature (°C),internal box temperature (°C),relative humidity of the measurement (%),span deviation,mass concentration of particles derived from Lorenz-Mie calculation of OPC scattering (μg/m³),mass concentration of particles derived from Lorenz-Mie calculation of OPC scattering (μg/m³),mass concentration of particles derived from Lorenz-Mie calculation of OPC scattering (μg/m³)
DateTimeUTC,F1_M11,P_M11,Q1_M11,Q2_M11,T1_M11,T2_M11,T3_M11,T4_M11,T5_M11,U1_M11,ZSPAN_M11,X0_M11,X2_M11,X1_M11
2023-11-26 23:00:00,SystemResetWarning,0831.3,5.00,000.00,025.1,024.0,000.0,033.2,026.4,8.5,0000.0,0008.71,0005.84,0005.61
2023-11-26 23:01:00,SystemResetWarning,0831.3,4.99,000.00,025.1,024.0,000.0,033.2,026.4,8.7,0000.0,0008.83,0005.85,0005.62
2023-11-26 23:02:00,SystemResetWarning,0831.3,4.99,000.00,025.1,024.0,000.0,033.2,026.4,8.6,0000.0,0008.84,0005.85,0005.62
2023-11-26 23:03:00,SystemResetWarning,0831.3,4.99,000.00,025.1,024.0,000.0,033.3,026.4,8.7,0000.0,0008.82,0005.86,0005.62
2023-11-26 23:04:00,SystemResetWarning,0831.3,5.01,000.00,025.1,024.0,000.0,033.3,026.4,8.5,0000.0,0008.65,0005.83,0005.61
2023-11-26 23:05:00,SystemResetWarning,0831.2,5.02,000.00,025.1,024.0,000.0,033.2,026.4,8.5,0000.0,0008.66,0005.83,0005.62
2023-11-26 23:06:00,SystemResetWarning,0831.2,5.00,000.00,025.1,024.0,000.0,033.3,026.4,8.9,0000.0,0008.63,0005.82,0005.61
2023-11-26 23:07:00,SystemResetWarning,0831.2,5.00,000.00,025.1,024.0,000.0,033.3,026.4,8.8,0000.0,0008.65,0005.82,0005.61
2023-11-26 23:08:00,SystemResetWarning,0831.2,4.99,000.00,025.1,023.9,000.0,033.3,026.4,8.6,0000.0,0008.60,0005.81,0005.61
2023-11-26 23:09:00,SystemResetWarning,0831.2,5.00,000.00,025.1,023.9,000.0,033.3,026.4,8.6,0001.1,0008.58,0005.81,0005.61
2023-11-26 23:10:00,SystemResetWarning,0831.2,5.01,000.00,025.1,023.9,000.0,033.3,026.3,8.6,0002.5,0008.52,0005.80,0005.61
2023-11-26 23:11:00,SystemResetWarning,0831.2,5.00,000.00,025.1,023.9,000.0,033.3,026.4,8.5,0001.9,0008.45,0005.78,0005.59
2023-11-26 23:12:00,SystemResetWarning,0831.2,5.00,000.00,025.0,023.9,000.0,033.3,026.4,8.5,0000.9,0008.40,0005.80,0005.59
2023-11-26 23:13:00,SystemResetWarning,0831.2,4.99,000.00,025.0,023.9,000.0,033.3,026.4,8.7,0000.3,0008.38,0005.80,0005.60
2023-11-26 23:14:00,SystemResetWarning,0831.1,4.99,000.00,025.0,023.9,000.0,033.3,026.3,8.7,0000.0,0008.38,0005.80,0005.61
2023-11-26 23:15:00,SystemResetWarning,0831.1,4.99,000.00,025.0,023.9,000.0,033.3,026.4,8.7,0000.0,0008.68,0005.82,0005.62
2023-11-26 23:16:00,SystemResetWarning,0831.1,5.01,000.00,025.0,023.9,000.0,033.3,026.3,8.8,0000.0,0008.65,0005.83,0005.63
2023-11-26 23:17:00,SystemResetWarning,0831.1,5.00,000.00,025.0,023.9,000.0,033.2,026.3,8.8,0000.0,0008.74,0005.88,0005.65
2023-11-26 23:18:00,SystemResetWarning,0831.1,5.00,000.00,025.0,023.9,000.0,033.2,026.3,8.8,0000.0,0008.79,0005.90,0005.67
2023-11-26 23:19:00,SystemResetWarning,0831.1,5.00,000.00,025.0,023.9,000.0,033.2,026.3,8.8,0000.0,0008.78,0005.91,0005.68
2023-11-26 23:20:00,SystemResetWarning,0831.1,5.00,000.00,025.0,023.9,000.0,033.2,026.4,8.7,0000.0,0008.76,0005.92,0005.69
2023-11-26 23:21:00,SystemResetWarning,0831.1,4.99,000.00,025.0,023.8,000.0,033.2,026.3,8.5,0000.0,0008.83,0005.94,0005.70
2023-11-26 23:22:00,SystemResetWarning,0831.1,4.99,000.00,025.0,023.8,000.0,033.2,026.3,8.5,0000.0,0008.89,0005.97,0005.71
2023-11-26 23:23:00,SystemResetWarning,0831.1,4.99,000.00,025.0,023.8,000.0,033.2,026.2,8.4,0000.0,0008.87,0005.97,0005.72
2023-11-26 23:24:00,SystemResetWarning,0831.1,5.01,000.00,025.0,023.8,000.0,033.2,026.3,8.4,0000.0,0009.22,0006.00,0005.74
2023-11-26 23:25:00,SystemResetWarning,0831.1,5.01,000.00,025.0,023.8,000.0,033.2,026.2,8.3,0000.0,0009.27,0006.01,0005.73
2023-11-26 23:26:00,SystemResetWarning,0831.1,5.00,000.00,024.9,023.8,000.0,033.2,026.2,8.4,0000.0,0009.04,0006.03,0005.75
2023-11-26 23:27:00,SystemResetWarning,0831.2,4.99,000.00,024.9,023.8,000.0,033.2,026.2,8.5,0000.0,0009.05,0006.05,0005.77
2023-11-26 23:28:00,SystemResetWarning,0831.1,4.99,000.00,024.9,023.8,000.0,033.2,026.3,8.7,0000.0,0008.98,0006.03,0005.77
2023-11-26 23:29:00,SystemResetWarning,0831.2,5.00,000.00,024.9,023.8,000.0,033.2,026.3,8.8,0000.0,0008.94,0006.04,0005.77
2023-11-26 23:30:00,SystemResetWarning,0831.2,5.01,000.00,024.9,023.8,000.0,033.2,026.3,8.8,0000.0,0008.92,0006.03,0005.78
2023-11-26 23:31:00,SystemResetWarning,0831.1,5.01,000.00,024.9,023.7,000.0,033.2,026.2,8.9,0000.0,0009.08,0006.07,0005.80
2023-11-26 23:32:00,SystemResetWarning,0831.1,5.00,000.00,024.9,023.7,000.0,033.2,026.2,9.0,0000.0,0009.07,0006.06,0005.79
2023-11-26 23:33:00,SystemResetWarning,0831.1,4.99,000.00,024.9,023.7,000.0,033.2,026.2,9.0,0000.0,0009.04,0006.05,0005.79
2023-11-26 23:34:00,SystemResetWarning,0831.1,4.99,000.00,024.9,023.7,000.0,033.2,026.1,9.0,0000.0,0009.05,0006.04,0005.79
2023-11-26 23:35:00,SystemResetWarning,0831.1,4.99,000.00,024.8,023.6,000.0,033.2,026.1,8.9,0000.0,0008.81,0006.03,0005.77
2023-11-26 23:36:00,SystemResetWarning,0831.1,5.01,000.00,024.8,023.6,000.0,033.2,026.1,8.7,0000.0,0008.69,0006.05,0005.78
2023-11-26 23:37:00,SystemResetWarning,0831.1,5.01,000.00,024.8,023.6,000.0,033.1,026.1,8.7,0000.0,0008.78,0006.09,0005.80
2023-11-26 23:38:00,SystemResetWarning,0831.1,5.01,000.00,024.8,023.6,000.0,033.1,026.0,8.6,0000.0,0008.76,0006.08,0005.80
2023-11-26 23:39:00,SystemResetWarning,0831.1,5.00,000.00,024.8,023.6,000.0,033.1,026.1,8.7,0000.0,0008.72,0006.06,0005.79
2023-11-26 23:40:00,SystemResetWarning,0831.2,4.99,000.00,024.8,023.6,000.0,033.1,026.0,8.7,0000.0,0008.75,0006.06,0005.79
2023-11-26 23:41:00,SystemResetWarning,0831.1,4.99,000.00,024.7,023.6,000.0,033.1,026.0,8.6,0000.0,0008.83,0006.08,0005.80
2023-11-26 23:42:00,SystemResetWarning,0831.1,5.00,000.00,024.7,023.5,000.0,033.1,026.0,8.7,0000.0,0008.79,0006.08,0005.80
2023-11-26 23:43:00,SystemResetWarning,0831.2,5.00,000.00,024.7,023.5,000.0,033.1,025.9,8.7,0000.0,0009.50,0006.12,0005.85
2023-11-26 23:44:00,SystemResetWarning,0831.1,5.01,000.00,024.7,023.5,000.0,033.1,025.9,8.7,0000.0,0009.49,0006.16,0005.89
2023-11-26 23:45:00,SystemResetWarning,0831.1,5.00,000.00,024.6,023.4,000.0,033.0,025.9,8.6,0000.0,0009.49,0006.18,0005.91
2023-11-26 23:46:00,SystemResetWarning,0831.2,4.99,000.00,024.6,023.4,000.0,033.0,025.8,8.6,0000.0,0009.51,0006.20,0005.94
2023-11-26 23:47:00,SystemResetWarning,0831.3,5.01,000.00,024.6,023.4,000.0,033.0,025.6,8.7,0000.0,0009.49,0006.21,0005.96
2023-11-26 23:48:00,SystemResetWarning,0831.3,5.00,000.00,024.5,023.4,000.0,033.0,025.6,8.7,0000.0,0009.44,0006.20,0005.97
2023-11-26 23:49:00,SystemResetWarning,0831.2,5.00,000.00,024.5,023.3,000.0,033.0,025.5,8.8,0000.0,0009.35,0006.18,0005.97
2023-11-26 23:50:00,SystemResetWarning,0831.2,5.00,000.00,024.5,023.3,000.0,032.9,025.5,8.9,0000.0,0009.42,0006.22,0005.99
2023-11-26 23:51:00,SystemResetWarning,0831.2,5.01,000.00,024.4,023.3,000.0,032.9,025.5,8.9,0000.0,0009.46,0006.28,0006.02
2023-11-26 23:52:00,SystemResetWarning,0831.1,5.00,000.00,024.4,023.2,000.0,032.9,025.4,8.9,0001.0,0009.55,0006.34,0006.05
2023-11-26 23:53:00,SystemResetWarning,0831.1,5.00,000.00,024.3,023.1,000.0,032.9,025.3,8.8,0002.5,0009.88,0006.38,0006.09
2023-11-26 23:54:00,SystemResetWarning,0831.2,5.00,000.00,024.3,023.1,000.0,032.8,025.3,8.9,0002.5,0009.58,0006.39,0006.10
2023-11-26 23:55:00,SystemResetWarning,0831.1,5.00,000.00,024.2,023.1,000.0,032.8,025.3,9.0,0003.4,0009.28,0006.42,0006.11
2023-11-26 23:56:00,SystemResetWarning,0831.2,4.99,000.00,024.2,023.0,000.0,032.8,025.2,9.0,0002.9,0009.36,0006.48,0006.16
2023-11-26 23:57:00,SystemResetWarning,0831.1,5.00,000.00,024.2,023.0,000.0,032.7,025.2,8.9,0003.1,0009.42,0006.54,0006.21
2023-11-26 23:58:00,SystemResetWarning,0831.1,5.00,000.00,024.1,023.0,000.0,032.7,025.2,9.0,0003.0,0009.48,0006.58,0006.26
2023-11-26 23:59:00,SystemResetWarning,0831.1,5.01,000.00,024.1,022.9,000.0,032.7,025.2,9.2,0003.2,0009.52,0006.61,0006.29
